Location: *
(36.9825°N, 30.4647°E)
Time: 07:18:44
(UTC+00:00)

Daily predictions for brighter satellites

Satellite Brightness Start Highest point End
(mag) Time Altitude Azimuth Time Altitude Azimuth Time Altitude Azimuth
ATLAS 3B R/B 4.2 15:37:19 10° SE 15:40:24 14° ESE 15:43:29 10° ENE
ASTEX 1 3.7 15:36:07 10° NNE 15:40:54 46° E 15:45:40 10° SSE
Cosmos 489 Rocket 4.5 15:39:10 10° S 15:45:21 79° ESE 15:51:34 10° NNE
Cosmos 1726 2.0 15:42:46 10° S 15:46:24 67° E 15:50:01 10° NNE
CSL-04 Rocket 4.4 15:43:12 10° SE 15:48:03 32° ENE 15:52:53 10° N
YAOGAN 1 3.6 15:45:01 10° SE 15:48:35 26° ENE 15:52:09 10° NNE
CENTAUR R/B 3.8 15:46:28 10° SE 15:49:36 15° ESE 15:52:57 10° ENE
SKYMED 2 3.6 15:47:23 10° NNE 15:51:40 58° E 15:55:56 10° S
Cosmos 2228 3.9 15:47:27 10° SSW 15:51:44 55° W 15:56:01 10° N
Abrixas rocket 3.8 15:50:15 10° W 15:52:53 26° NNW 15:55:33 10° NE
Envisat 3.0 15:48:58 10° SSE 15:53:57 60° ENE 15:58:57 10° N
Lacrosse 5 3.5 15:53:18 10° NNW 15:56:47 18° NNE 15:59:49 11° ENE
Meteor 2-10 4.0 15:57:38 10° S 16:02:44 86° W 16:07:46 10° N
CZ-3 Stage 3 2.7 15:57:52 10° WSW 16:04:47 35° S 16:07:06 12° ESE
Lacrosse 5 rocket 3.2 16:04:57 10° WNW 16:08:21 30° SW 16:11:53 10° S
Cosmos 1356 4.5 16:05:57 10° SSW 16:09:17 48° W 16:12:38 10° N
Shenzhou-11 Module 3.0 16:07:16 10° NW 16:09:44 28° N 16:11:01 19° NE
USA 238 DEB 3.6 16:04:19 10° SSW 16:10:55 71° ESE 16:17:45 10° NE
USA 238 3.6 16:04:26 10° SSW 16:11:02 70° ESE 16:17:50 10° NE
Cosmos 1833 Rocket 3.2 16:06:15 10° N 16:11:27 37° ENE 16:16:37 10° SE
BREEZE-M DEB (TANK) 3.7 16:08:36 10° WSW 16:14:39 47° NW 16:16:55 13° NE
Unknown 3.8 16:12:06 10° NNW 16:14:56 31° NE 16:16:03 24° ENE
Cosmos 1328 3.9 16:12:38 10° N 16:16:36 78° W 16:20:31 10° S
Cosmos 1939 Rocket 3.9 16:14:54 15° ESE 16:17:19 25° ENE 16:20:41 10° NNE
YAOGAN 6 2.5 16:14:33 10° SSE 16:18:11 74° ENE 16:21:49 10° N
Cosmos 2058 Rocket 4.4 16:16:26 10° SSW 16:20:33 42° W 16:24:43 10° N
USA 116 3.2 16:20:13 10° NNE 16:23:30 86° ESE 16:27:06 10° SSW
Cosmos 1339 Rocket 4.5 16:22:22 10° S 16:28:26 85° W 16:34:36 10° N
Cosmos 482 Debris 4.1 16:24:35 10° NW 16:29:06 69° SW 16:30:47 23° SE
CZ-2D R/B 3.7 16:26:41 13° SE 16:29:44 39° ENE 16:33:22 10° N
Cosmos 1300 2.9 16:27:38 10° SSE 16:31:15 44° E 16:34:54 10° NNE
CSL-04 Debris 4.1 16:29:23 10° SSE 16:34:50 86° ENE 16:40:20 10° NNW
NOSS 3-2 (A) 3.2 16:29:16 10° SSW 16:34:53 87° ESE 16:41:11 10° NNE
Ariane Rocket 3.4 16:32:23 13° SE 16:36:39 41° ENE 16:41:25 10° N
Cosmos 1459 Rocket 4.5 16:33:46 10° NNE 16:39:27 35° ENE 16:43:09 20° SE
COSMO-SKYMED 1 4.1 16:35:39 10° N 16:39:40 38° WNW 16:43:40 10° SW
Cosmos 2082 Rocket 2.5 16:34:36 10° N 16:40:03 44° ENE 16:42:41 27° ESE
Cosmos 1461 3.1 16:36:14 10° NNW 16:40:15 49° ENE 16:41:21 38° ESE
Cosmos 468 Rocket 4.5 16:37:42 10° SSE 16:42:29 36° E 16:43:43 32° ENE
Meteor 2-1 Rocket 4.3 16:40:19 10° SSE 16:45:32 47° E 16:50:50 10° NNE
CZ-4 R/B 2.5 16:42:01 10° S 16:46:02 48° W 16:50:07 10° NNW
OAO 2 Rocket 4.4 16:41:56 10° W 16:46:50 40° SSW 16:49:44 22° SE
Cosmos 1605 Rocket 4.2 16:41:56 10° NNW 16:48:03 69° W 16:54:05 10° S
Cosmos 44 3.2 16:46:55 10° SSW 16:51:56 70° ESE 16:54:03 33° NE
COSMOS 2406 4.4 16:48:08 10° NW 16:53:32 43° WSW 16:58:52 10° S
OAO 3 Copernicus 4.3 16:48:37 10° WSW 16:53:40 68° S 16:55:03 46° ESE
Cosmos 1727 Rocket 4.1 16:48:01 10° S 16:54:11 78° W 17:00:22 10° N
NOSS 3-2 (C) 3.2 16:54:18 10° SSW 16:59:55 84° ESE 17:04:26 20° NE
BREEZE M DEB (TANK) 2.9 16:57:50 10° NW 17:00:50 63° NE 17:02:10 46° E
In-Cosmos 22 Rocket 4.3 16:59:52 10° N 17:04:58 49° ENE 17:04:58 49° ENE
OAO 3 Rocket 3.8 17:01:14 10° W 17:05:59 48° SSW 17:06:59 42° SSE
Cosmos 2173 Rocket 3.9 17:00:21 10° N 17:06:30 59° E 17:09:24 31° SSE
Gbstr 26 Del rocket 4.2 17:00:18 10° NW 17:06:41 64° NE 17:08:56 44° E
ADEOS Rocket 3.6 17:03:27 10° NNE 17:10:35 44° E 17:17:07 10° SSE
Cosmos 1802 Rocket 4.1 17:05:39 10° N 17:11:56 54° E 17:12:49 50° ESE
Cosmos 1076 Rocket 3.6 17:10:25 10° N 17:14:46 73° W 17:16:01 45° SSW
Cosmos 2278 Rocket 4.3 17:11:27 10° WSW 17:16:05 25° WNW 17:20:43 10° N
Delta 2 Rocket 4.3 17:12:59 10° W 17:15:07 34° WSW 17:15:07 34° WSW
Cosmos 2297 3.8 17:12:37 10° SSW 17:18:17 78° WNW 17:22:44 17° NNE
Cosmos 967 Rocket 4.4 17:14:07 10° NNW 17:20:37 83° ENE 17:22:21 52° SE
Cosmos 1000 Rocket 4.4 17:15:10 10° S 17:21:20 89° WNW 17:27:36 10° N
Cosmos 1763 Rocket 4.3 17:17:00 10° S 17:20:17 38° S 17:20:17 38° S
SL-24 R/B 4.4 17:19:40 10° NNE 17:25:17 89° W 17:29:58 10° SSW
H-2A R/B 3.9 17:33:28 19° N 17:33:28 19° N 17:35:07 10° N
ATLAS 3B R/B 2.5 17:23:23 10° SSW 17:30:11 90° NW 17:32:24 46° NNE
Cosmos 2100 Rocket 4.0 17:26:01 10° N 17:32:12 78° W 17:36:33 20° S
CENTAUR R/B 2.5 17:33:24 10° SW 17:39:09 73° NW 17:40:48 50° NNE
MOS 1 4.2 17:39:46 79° WSW 17:39:53 80° WSW 17:45:33 10° NNW
Lacrosse 5 2.5 17:35:19 10° NW 17:39:03 50° NW 17:39:03 50° NW
Cosmos 2016 Rocket 4.2 17:44:42 10° N 17:49:50 62° N 17:49:50 62° N
Cosmos 2082 Rocket 4.2 18:19:26 10° NW 18:23:46 23° W 18:24:36 22° WSW
